Location: *
(30.4476°N, 114.3798°E)
Time: 01:42:42
(UTC+00:00)

STPSAT 2 (USA 217) - Pass Details

Date: 09 April 2020
Orbit: 622 x 646 km, 72.0° (Epoch: 16 May)

Event Time Altitude Azimuth Distance (km) Brightness Sun altitude
Rises 12:13:35 0° 190° (S) 2,886 7.9 -18.9°
Reaches altitude 10° 12:15:50 10° 187° (S) 1,982 7.0 -19.3°
Maximum altitude 12:20:14 64° 106° (ESE) 687 4.4 -20.2°
Drops below altitude 10° 12:24:39 10° 25° (NNE) 1,995 7.1 -21.1°
Sets 12:26:56 0° 23° (NNE) 2,906 8.0 -21.5°
